Location: ??????
(42.0089°N, 44.3281°E)
Time: 19:05:50
(UTC+00:00)

OAO 3 Rocket - Pass Details

Date: 24 October 2021
Orbit: 628 x 682 km, 35.0° (Epoch: 02 December)

Event Time Altitude Azimuth Distance (km) Brightness Sun altitude
Rises 16:04:06 0° 236° (WSW) 2,957 7.4 -22.3°
Reaches altitude 10° 16:06:41 10° 225° (SW) 2,057 6.2 -22.8°
Enters shadow 16:10:30 28° 173° (S) 1,220 4.4 -23.5°
